Location: �terpigny
(49.8910°N, 2.9249°E)
Time: 05:54:40
(UTC+00:00)

Cosmos 1908 - Pass Details

Date: 03 June 2022
Orbit: 505 x 523 km, 82.5° (Epoch: 03 July)

Event Time Altitude Azimuth Distance (km) Brightness Sun altitude
Rises 21:27:32 0° 6° (N) 2,623 7.7 -11.4°
Reaches altitude 10° 21:30:41 10° 34° (NE) 1,731 6.2 -11.7°
Maximum altitude 21:32:32 13° 64° (ENE) 1,537 5.5 -11.8°
Drops below altitude 10° 21:34:24 10° 94° (E) 1,726 5.5 -12.0°
Enters shadow 21:34:57 - 101° (E) 1,844 5.6 -12.0°
